When you browse on this site, cookies collect data to enhance your experience and personalize the content and advertising you see.
Visit our Privacy Policy to learn more. By continuing to use the site, you agree to this use of cookies and data.
  • en France
  • Liste des pays
  • À 7 jours
  • Température de l'eau
  • Carte satellitaire
  • Carte météo
  • Widgets météo
  • user-avatar
    Se connecter

    Météo par heure à Nashavar

    Ce jour, 25 Avril, Jeudi

    Heure Température Précipitation Vent Pression Humidité
    00:00 +27°C° 0 mm 1 m/s 729 mmHg 47%
    01:00 +27°C° 0 mm 1 m/s 729 mmHg 48%
    02:00 +26°C° 0 mm 1 m/s 729 mmHg 50%
    03:00 +26°C° 0 mm 1 m/s 729 mmHg 51%
    04:00 +25°C° 0 mm 1 m/s 729 mmHg 53%
    05:00 +25°C° 0 mm 2 m/s 729 mmHg 55%
    06:00 +26°C° 0 mm 2 m/s 729 mmHg 52%
    07:00 +26°C° 0 mm 2 m/s 730 mmHg 49%
    08:00 +27°C° 0 mm 2 m/s 730 mmHg 46%
    09:00 +29°C° 0 mm 2 m/s 730 mmHg 42%
    10:00 +30°C° 0 mm 2 m/s 730 mmHg 37%
    11:00 +31°C° 0 mm 2 m/s 730 mmHg 33%
    12:00 +34°C° 0 mm 2 m/s 730 mmHg 31%
    13:00 +35°C° 0 mm 3 m/s 729 mmHg 28%
    14:00 +36°C° 0 mm 3 m/s 729 mmHg 26%
    15:00 +36°C° 0 mm 3 m/s 729 mmHg 25%
    16:00 +36°C° 0 mm 4 m/s 728 mmHg 25%
    17:00 +36°C° 0 mm 4 m/s 728 mmHg 25%
    18:00 +35°C° 0.1 mm 4 m/s 728 mmHg 27%
    19:00 +34°C° 0.1 mm 4 m/s 728 mmHg 30%
    20:00 +32°C° 0.1 mm 4 m/s 728 mmHg 32%
    21:00 +30°C° 0.1 mm 4 m/s 728 mmHg 36%
    22:00 +29°C° 0.1 mm 3 m/s 729 mmHg 40%
    23:00 +28°C° 0.1 mm 3 m/s 729 mmHg 45%

    Demain, 26 Avril, Vendredi

    Heure Température Précipitation Vent Pression Humidité
    00:00 +27°C° 0 mm 3 m/s 728 mmHg 48%
    01:00 +26°C° 0 mm 3 m/s 728 mmHg 51%
    02:00 +25°C° 0 mm 2 m/s 728 mmHg 54%
    03:00 +25°C° 0 mm 2 m/s 728 mmHg 55%
    04:00 +25°C° 0 mm 2 m/s 728 mmHg 56%
    05:00 +24°C° 0 mm 2 m/s 728 mmHg 57%
    06:00 +25°C° 0 mm 2 m/s 728 mmHg 52%
    07:00 +27°C° 0 mm 2 m/s 729 mmHg 48%
    08:00 +28°C° 0 mm 2 m/s 729 mmHg 43%
    09:00 +29°C° 0 mm 2 m/s 729 mmHg 39%
    10:00 +31°C° 0 mm 2 m/s 730 mmHg 35%
    11:00 +32°C° 0 mm 1 m/s 730 mmHg 31%
    12:00 +33°C° 0 mm 1 m/s 729 mmHg 28%
    13:00 +34°C° 0 mm 1 m/s 729 mmHg 25%
    14:00 +35°C° 0 mm 1 m/s 729 mmHg 22%
    15:00 +35°C° 0 mm 1 m/s 729 mmHg 21%
    16:00 +36°C° 0 mm 2 m/s 728 mmHg 20%
    17:00 +36°C° 0 mm 2 m/s 728 mmHg 19%
    18:00 +35°C° 0 mm 2 m/s 728 mmHg 22%
    19:00 +32°C° 0 mm 2 m/s 728 mmHg 24%
    20:00 +31°C° 0 mm 1 m/s 729 mmHg 27%
    21:00 +30°C° 0 mm 1 m/s 729 mmHg 28%
    22:00 +30°C° 0 mm 1 m/s 729 mmHg 30%
    23:00 +29°C° 0 mm 1 m/s 730 mmHg 32%

    Après-demain, 27 Avril, Samedi

    Heure Température Précipitation Vent Pression Humidité
    00:00 +28°C° 0 mm 1 m/s 729 mmHg 33%
    01:00 +27°C° 0 mm 1 m/s 729 mmHg 34%
    02:00 +27°C° 0 mm 1 m/s 729 mmHg 34%
    03:00 +26°C° 0 mm 1 m/s 729 mmHg 36%
    04:00 +26°C° 0 mm 2 m/s 729 mmHg 37%
    05:00 +25°C° 0 mm 2 m/s 729 mmHg 38%
    06:00 +27°C° 0 mm 2 m/s 729 mmHg 36%
    07:00 +28°C° 0 mm 2 m/s 730 mmHg 33%
    08:00 +29°C° 0 mm 2 m/s 730 mmHg 31%
    09:00 +30°C° 0 mm 2 m/s 730 mmHg 28%
    10:00 +32°C° 0 mm 2 m/s 730 mmHg 25%
    11:00 +34°C° 0 mm 2 m/s 730 mmHg 22%
    12:00 +35°C° 0 mm 2 m/s 730 mmHg 20%
    13:00 +35°C° 0 mm 1 m/s 729 mmHg 18%
    14:00 +36°C° 0 mm 1 m/s 729 mmHg 16%
    15:00 +36°C° 0 mm 1 m/s 728 mmHg 15%
    16:00 +36°C° 0 mm 1 m/s 728 mmHg 15%
    17:00 +37°C° 0 mm 2 m/s 728 mmHg 15%
    18:00 +36°C° 0 mm 2 m/s 728 mmHg 17%
    19:00 +33°C° 0 mm 1 m/s 728 mmHg 20%
    20:00 +32°C° 0 mm 1 m/s 728 mmHg 23%
    21:00 +31°C° 0 mm 1 m/s 728 mmHg 24%
    22:00 +30°C° 0 mm 1 m/s 728 mmHg 26%
    23:00 +28°C° 0 mm 0 m/s 729 mmHg 27%

    28 Avril, Dimanche

    Heure Température Précipitation Vent Pression Humidité
    00:00 +29°C° 0 mm 1 m/s 728 mmHg 27%
    01:00 +28°C° 0 mm 1 m/s 728 mmHg 27%
    02:00 +28°C° 0 mm 2 m/s 728 mmHg 28%
    03:00 +27°C° 0 mm 2 m/s 728 mmHg 29%
    04:00 +26°C° 0 mm 2 m/s 727 mmHg 30%
    05:00 +26°C° 0 mm 2 m/s 727 mmHg 31%
    06:00 +27°C° 0 mm 2 m/s 728 mmHg 29%
    07:00 +28°C° 0 mm 2 m/s 728 mmHg 26%
    08:00 +29°C° 0 mm 2 m/s 728 mmHg 24%
    09:00 +31°C° 0 mm 3 m/s 728 mmHg 21%
    10:00 +33°C° 0 mm 3 m/s 728 mmHg 19%
    11:00 +35°C° 0 mm 3 m/s 728 mmHg 17%
    12:00 +36°C° 0 mm 2 m/s 728 mmHg 15%
    13:00 +36°C° 0 mm 2 m/s 727 mmHg 14%
    14:00 +36°C° 0 mm 1 m/s 727 mmHg 13%
    15:00 +36°C° 0 mm 1 m/s 727 mmHg 13%
    16:00 +36°C° 0 mm 1 m/s 726 mmHg 13%
    17:00 +36°C° 0 mm 1 m/s 726 mmHg 13%
    18:00 +35°C° 0 mm 1 m/s 726 mmHg 16%
    19:00 +33°C° 0 mm 1 m/s 726 mmHg 19%
    20:00 +30°C° 0 mm 0 m/s 727 mmHg 22%
    21:00 +31°C° 0 mm 1 m/s 727 mmHg 22%
    22:00 +31°C° 0 mm 1 m/s 727 mmHg 21%
    23:00 +30°C° 0 mm 1 m/s 727 mmHg 21%

    29 Avril, Lundi

    Heure Température Précipitation Vent Pression Humidité
    00:00 +30°C° 0 mm 1 m/s 727 mmHg 21%
    01:00 +29°C° 0 mm 2 m/s 727 mmHg 22%
    02:00 +28°C° 0 mm 2 m/s 726 mmHg 22%
    03:00 +28°C° 0 mm 2 m/s 727 mmHg 22%
    04:00 +27°C° 0 mm 2 m/s 727 mmHg 22%
    05:00 +26°C° 0 mm 2 m/s 727 mmHg 23%
    06:00 +28°C° 0 mm 2 m/s 727 mmHg 21%
    07:00 +29°C° 0 mm 2 m/s 727 mmHg 19%
    08:00 +30°C° 0 mm 2 m/s 728 mmHg 17%
    09:00 +32°C° 0 mm 2 m/s 728 mmHg 16%
    10:00 +34°C° 0 mm 2 m/s 728 mmHg 14%
    11:00 +36°C° 0 mm 2 m/s 728 mmHg 13%
    12:00 +37°C° 0 mm 2 m/s 727 mmHg 12%
    13:00 +38°C° 0 mm 2 m/s 727 mmHg 12%
    14:00 +38°C° 0 mm 2 m/s 726 mmHg 11%
    15:00 +38°C° 0 mm 2 m/s 726 mmHg 11%
    16:00 +38°C° 0 mm 2 m/s 725 mmHg 11%
    17:00 +39°C° 0 mm 2 m/s 725 mmHg 11%
    18:00 +37°C° 0 mm 2 m/s 725 mmHg 13%
    19:00 +35°C° 0 mm 1 m/s 726 mmHg 15%
    20:00 +33°C° 0 mm 1 m/s 726 mmHg 17%
    21:00 +33°C° 0 mm 1 m/s 726 mmHg 17%
    22:00 +32°C° 0 mm 1 m/s 726 mmHg 18%
    23:00 +32°C° 0 mm 1 m/s 726 mmHg 18%

    30 Avril, Mardi

    Heure Température Précipitation Vent Pression Humidité
    00:00 +31°C° 0 mm 1 m/s 726 mmHg 18%
    01:00 +31°C° 0 mm 2 m/s 726 mmHg 19%
    02:00 +30°C° 0 mm 2 m/s 725 mmHg 19%
    03:00 +30°C° 0 mm 2 m/s 725 mmHg 21%
    04:00 +29°C° 0 mm 2 m/s 725 mmHg 23%
    05:00 +28°C° 0 mm 3 m/s 725 mmHg 24%
    06:00 +29°C° 0.1 mm 3 m/s 726 mmHg 24%
    07:00 +30°C° 0.1 mm 4 m/s 726 mmHg 23%
    08:00 +32°C° 0.1 mm 4 m/s 726 mmHg 23%
    09:00 +34°C° 0 mm 3 m/s 726 mmHg 21%
    10:00 +35°C° 0 mm 3 m/s 726 mmHg 19%
    11:00 +36°C° 0 mm 2 m/s 726 mmHg 17%
    12:00 +36°C° 0 mm 4 m/s 726 mmHg 18%
    13:00 +36°C° 0 mm 6 m/s 726 mmHg 19%
    14:00 +37°C° 0 mm 8 m/s 726 mmHg 20%
    15:00 +35°C° 0 mm 7 m/s 725 mmHg 22%
    16:00 +34°C° 0 mm 6 m/s 725 mmHg 24%
    17:00 +33°C° 0 mm 4 m/s 725 mmHg 26%
    18:00 +32°C° 0 mm 4 m/s 725 mmHg 28%
    19:00 +30°C° 0 mm 4 m/s 725 mmHg 30%
    20:00 +29°C° 0 mm 4 m/s 725 mmHg 32%
    21:00 +28°C° 0 mm 4 m/s 725 mmHg 32%
    22:00 +28°C° 0 mm 4 m/s 725 mmHg 32%
    23:00 +28°C° 0 mm 4 m/s 725 mmHg 33%
    Voir plus